LIMJLFKB

Guest
Details From LIMJ - Genova Sestri
To LFKB - Bastia Poretta
Flight Number -
Tags generated
Created
Modified
Stats Distance 115 nm / 213 km
Max Altitude 9,400 ft / 2,865 m
Waypoints 3
Social Downloads 0
Likes 0
Share VATSIM

Download

Looking for another format? Having issues loading an existing format? Contact us
Advertisement - Login to hide

Notes

Basic altitude profile: - Ascent Rate: 2500ft/min - Ascent Speed: 250kts - Cruise Altitude: 35000ft - Cruise Speed: 420kts - Descent Rate: 1500ft/min - Descent Speed: 250kts Options: - Use NATs: yes - Use PACOTS: yes - Use low airways: yes - Use high airways: yes

Route

LIMJ UNITA LFKB

ID Type Via Altitude Latitude Longitude Leg Dist Tot Dist Heading (true) Name
O LIMJ APT - 0 ft / 0 m 44.41196˚ 8.84187˚ - 0 nm - Genova Sestri
UNITA FIX - 9,400 ft / 2,865 m 43.94444˚ 9.02500˚ 29 nm 29 nm 164° / 164° -
O LFKB APT - 0 ft / 0 m 42.55251˚ 9.48371˚ 85 nm 115 nm 166° / 167° Bastia Poretta

Altitude Profile

Advertisement - Login to hide

LIMJ

Details ICAO LIMJ (GOA)
Name Genova Sestri
Region Italy
Timezone Unknown (UTC+0.0)
Stats Elevation 13 ft / 4 m (AMSL)
Location 44.411957° 8.841866°
Runways 1
Magnetic Variation 2.387° E

METAR

LIMJ 121350Z 14008KT 090V190 9999 SCT030 BKN050 13/08 Q1010

Decode

TAF

TAF LIMJ 121100Z 1212/1312 21010KT 9999 BKN030 PROB40 TEMPO 1212/1216 21010G20KT BECMG 1219/1221 02006KT

Decode

Departure Runways

ID Width Length Bearing (true) Bearing (mag) Surface Threshold Offset Overrun Length
10 148 ft / 45 m 9,574 ft / 2,918 m 105.39° 103.00° Asphalt 0 ft / 0 m 0 ft / 0 m
28 148 ft / 45 m 9,574 ft / 2,918 m 285.41° 283.02° Asphalt 538 ft / 164 m 0 ft / 0 m

LFKB

Details ICAO LFKB (BIA)
Name Bastia Poretta
Region France
Timezone Europe/Paris (UTC+1.0)
Stats Elevation 25 ft / 8 m (AMSL)
Location 42.552508° 9.483709°
Runways 1
Magnetic Variation 2.484° E

METAR

LFKB 121400Z AUTO VRB02KT 9999 FEW038 OVC100 13/10 Q1012 TEMPO RA BKN015 FEW025TCU

Decode

TAF

TAF TAF LFKB 120800Z 1209/1309 VRB05KT 9999 SCT040 BKN070 OVC140 PROB40 TEMPO 1209/1218 RA BKN015 FEW025TCU BECMG 1301/1303 23010KT TX15/1213Z TN07/1304Z

Decode

Destination Runways

ID Width Length Bearing (true) Bearing (mag) Surface Threshold Offset Overrun Length
16 148 ft / 45 m 8,273 ft / 2,522 m 162.83° 160.35° Concrete 0 ft / 0 m 131 ft / 40 m
34 148 ft / 45 m 8,273 ft / 2,522 m 342.84° 340.36° Concrete 0 ft / 0 m 0 ft / 0 m

Approach Navaids

Runway Type Ident Frequency Range Bearing (true) Bearing (mag) Slope Elevation
34 Localiser BP 111.35 MHz 27 nm / 50 km 342.81° 340.33° - 25 ft / 8 m (AMSL)
34 Glidescope BP 111.35 MHz 27 nm / 50 km 342.81° 340.33° 3.00° 25 ft / 8 m (AMSL)
34 DME BP 111.35 MHz 18 nm / 33 km - - - 69 ft / 21 m (AMSL)

Popular Alternatives